| time (UTC) | temp F | wind direction | speed MPH | gust MPH | rain 1hr in | rain 24hr in | rain mn in | humidity % | barometer mb |
| 20260906173520 | 55 | 271 | 6.0 | 12.0 | 0.00 | 0.00 | 0.00 | 60 | 1011.4 |
| 20260906172519 | 55 | 275 | 7.0 | 15.0 | 0.00 | 0.00 | 0.00 | 60 | 1011.2 |
| 20260906171518 | 56 | 285 | 8.0 | 15.0 | 0.00 | 0.00 | 0.00 | 58 | 1011.1 |
| 20260906170537 | 56 | 292 | 8.0 | 15.0 | 0.00 | 0.00 | 0.00 | 57 | 1011.0 |
| 20260906165546 | 57 | 289 | 8.0 | 15.0 | 0.00 | 0.00 | 0.00 | 57 | 1010.9 |
| 20260906164545 | 57 | 290 | 8.0 | 15.0 | 0.00 | 0.00 | 0.00 | 55 | 1010.8 |
| 20260906163545 | 58 | 290 | 7.0 | 17.0 | 0.00 | 0.00 | 0.00 | 53 | 1010.8 |
| 20260906162543 | 58 | 303 | 7.0 | 14.0 | 0.00 | 0.00 | 0.00 | 49 | 1010.7 |
| 20260906161542 | 58 | 299 | 9.0 | 17.0 | 0.00 | 0.00 | 0.00 | 48 | 1010.6 |
| 20260906160540 | 58 | 289 | 8.0 | 17.0 | 0.00 | 0.00 | 0.00 | 50 | 1010.5 |
| 20260906155540 | 59 | 289 | 8.0 | 16.0 | 0.00 | 0.00 | 0.00 | 50 | 1010.4 |
| 20260906154539 | 59 | 293 | 6.0 | 15.0 | 0.00 | 0.00 | 0.00 | 49 | 1010.3 |
| 20260906153538 | 59 | 308 | 6.0 | 15.0 | 0.00 | 0.00 | 0.00 | 46 | 1010.2 |
| 20260906152538 | 59 | 308 | 7.0 | 14.0 | 0.00 | 0.00 | 0.00 | 44 | 1010.1 |
| 20260906151536 | 59 | 305 | 8.0 | 17.0 | 0.00 | 0.00 | 0.00 | 44 | 1010.0 |
| 20260906150535 | 59 | 307 | 7.0 | 14.0 | 0.00 | 0.00 | 0.00 | 43 | 1010.0 |
| 20260906145534 | 59 | 302 | 8.0 | 18.0 | 0.00 | 0.00 | 0.00 | 42 | 1009.9 |
| 20260906144553 | 59 | 305 | 9.0 | 19.0 | 0.00 | 0.00 | 0.00 | 40 | 1009.8 |
| 20260906143532 | 60 | 299 | 10.0 | 19.0 | 0.00 | 0.00 | 0.00 | 41 | 1009.7 |
| 20260906142531 | 60 | 296 | 9.0 | 19.0 | 0.00 | 0.00 | 0.00 | 39 | 1009.5 |
| 20260906141530 | 60 | 301 | 8.0 | 19.0 | 0.00 | 0.00 | 0.00 | 41 | 1009.5 |
| 20260906140529 | 59 | 294 | 10.0 | 18.0 | 0.00 | 0.00 | 0.00 | 40 | 1009.3 |
| 20260906135528 | 60 | 302 | 10.0 | 20.0 | 0.00 | 0.00 | 0.00 | 41 | 1009.3 |
| 20260906134527 | 59 | 289 | 10.0 | 21.0 | 0.00 | 0.00 | 0.00 | 39 | 1009.2 |
| 20260906133626 | 59 | 290 | 11.0 | 21.0 | 0.00 | 0.00 | 0.00 | 42 | 1009.1 |
| 20260906132605 | 59 | 308 | 10.0 | 20.0 | 0.00 | 0.00 | 0.00 | 44 | 1009.1 |
| 20260906131523 | 59 | 286 | 10.0 | 23.0 | 0.00 | 0.00 | 0.00 | 43 | 1009.0 |
| 20260906130522 | 59 | 287 | 10.0 | 23.0 | 0.00 | 0.00 | 0.00 | 44 | 1008.9 |
| 20260906125522 | 59 | 282 | 10.0 | 18.0 | 0.00 | 0.00 | 0.00 | 48 | 1008.9 |
| 20260906124520 | 59 | 281 | 11.0 | 18.0 | 0.00 | 0.00 | 0.00 | 47 | 1008.8 |
| 20260906123540 | 59 | 286 | 10.0 | 20.0 | 0.00 | 0.00 | 0.00 | 46 | 1008.7 |
| 20260906122519 | 59 | 285 | 10.0 | 20.0 | 0.00 | 0.00 | 0.00 | 48 | 1008.7 |
| 20260906121518 | 59 | 285 | 9.0 | 20.0 | 0.00 | 0.00 | 0.00 | 47 | 1008.6 |
| 20260906120517 | 59 | 293 | 7.0 | 18.0 | 0.00 | 0.00 | 0.00 | 49 | 1008.5 |
| 20260906115516 | 59 | 298 | 8.0 | 20.0 | 0.00 | 0.00 | 0.00 | 48 | 1008.4 |
| 20260906114545 | 58 | 293 | 9.0 | 20.0 | 0.00 | 0.00 | 0.00 | 49 | 1008.3 |
| 20260906113544 | 58 | 296 | 12.0 | 19.0 | 0.00 | 0.00 | 0.00 | 49 | 1008.2 |
| 20260906112543 | 58 | 286 | 10.0 | 21.0 | 0.00 | 0.00 | 0.00 | 50 | 1008.1 |
| 20260906111544 | 58 | 290 | 9.0 | 16.0 | 0.00 | 0.00 | 0.00 | 51 | 1008.0 |
| 20260906110543 | 58 | 290 | 10.0 | 18.0 | 0.00 | 0.00 | 0.00 | 50 | 1007.9 |
| 20260906105543 | 58 | 296 | 10.0 | 18.0 | 0.00 | 0.00 | 0.00 | 49 | 1007.7 |
| 20260906104541 | 57 | 295 | 9.0 | 17.0 | 0.00 | 0.00 | 0.00 | 50 | 1007.6 |
| 20260906103540 | 57 | 281 | 10.0 | 18.0 | 0.00 | 0.00 | 0.00 | 49 | 1007.5 |
| 20260906102538 | 57 | 283 | 10.0 | 18.0 | 0.00 | 0.00 | 0.00 | 51 | 1007.3 |
| 20260906101538 | 57 | 295 | 10.0 | 18.0 | 0.00 | 0.00 | 0.00 | 50 | 1007.2 |
| 20260906100537 | 56 | 307 | 10.0 | 18.0 | 0.00 | 0.00 | 0.00 | 51 | 1007.1 |
| 20260906095536 | 56 | 309 | 10.0 | 18.0 | 0.00 | 0.00 | 0.00 | 51 | 1006.9 |
| 20260906094556 | 56 | 302 | 8.0 | 18.0 | 0.00 | 0.00 | 0.00 | 50 | 1006.8 |
| 20260906093554 | 56 | 293 | 9.0 | 18.0 | 0.00 | 0.00 | 0.00 | 50 | 1006.7 |
| 20260906092533 | 56 | 304 | 9.0 | 18.0 | 0.00 | 0.00 | 0.00 | 52 | 1006.7 |
| 20260906091532 | 56 | 300 | 8.0 | 19.0 | 0.00 | 0.00 | 0.00 | 52 | 1006.7 |
| 20260906090531 | 56 | 295 | 8.0 | 18.0 | 0.00 | 0.00 | 0.00 | 54 | 1006.5 |
| 20260906085530 | 55 | 299 | 11.0 | 20.0 | 0.00 | 0.00 | 0.00 | 54 | 1006.4 |
| 20260906084529 | 55 | 295 | 9.0 | 20.0 | 0.00 | 0.00 | 0.00 | 56 | 1006.3 |
| 20260906083526 | 54 | 302 | 10.0 | 18.0 | 0.00 | 0.00 | 0.00 | 61 | 1006.3 |
| 20260906082525 | 55 | 304 | 8.0 | 19.0 | 0.00 | 0.00 | 0.00 | 62 | 1006.2 |
| 20260906081526 | 53 | 302 | 10.0 | 19.0 | 0.00 | 0.00 | 0.00 | 62 | 1006.2 |
| 20260906080545 | 54 | 312 | 7.0 | 14.0 | 0.00 | 0.00 | 0.00 | 66 | 1006.1 |
| 20260906075544 | 53 | 309 | 7.0 | 18.0 | 0.00 | 0.00 | 0.00 | 67 | 1006.1 |
| 20260906074603 | 53 | 300 | 8.0 | 17.0 | 0.00 | 0.00 | 0.00 | 70 | 1006.0 |
| 20260906073522 | 52 | 308 | 9.0 | 18.0 | 0.00 | 0.00 | 0.00 | 70 | 1005.9 |
| 20260906072520 | 52 | 298 | 9.0 | 17.0 | 0.00 | 0.00 | 0.00 | 72 | 1005.9 |
| 20260906071520 | 53 | 306 | 9.0 | 17.0 | 0.00 | 0.00 | 0.00 | 72 | 1005.8 |
| 20260906070518 | 52 | 304 | 8.0 | 17.0 | 0.00 | 0.00 | 0.00 | 72 | 1005.7 |
| 20260906065558 | 52 | 299 | 7.0 | 17.0 | 0.00 | 0.00 | 0.00 | 72 | 1005.7 |
| 20260906064517 | 52 | 301 | 6.0 | 13.0 | 0.00 | 0.00 | 0.00 | 74 | 1005.6 |
| 20260906063545 | 51 | 296 | 8.0 | 15.0 | 0.00 | 0.00 | 0.00 | 75 | 1005.5 |
| 20260906062546 | 51 | 304 | 7.0 | 14.0 | 0.00 | 0.00 | 0.00 | 75 | 1005.4 |
| 20260906061543 | 51 | 307 | 8.0 | 13.0 | 0.00 | 0.00 | 0.00 | 76 | 1005.3 |
| 20260906060544 | 51 | 309 | 7.0 | 14.0 | 0.00 | 0.00 | 0.00 | 76 | 1005.1 |
| 20260906055601 | 50 | 306 | 6.0 | 13.0 | 0.00 | 0.00 | 0.00 | 78 | 1005.1 |
| 20260906054541 | 50 | 312 | 7.0 | 14.0 | 0.00 | 0.00 | 0.00 | 78 | 1005.0 |
| 20260906053600 | 50 | 313 | 6.0 | 12.0 | 0.00 | 0.00 | 0.00 | 78 | 1004.8 |
| 20260906052539 | 50 | 312 | 6.0 | 11.0 | 0.00 | 0.00 | 0.00 | 79 | 1004.8 |
| 20260906051558 | 50 | 325 | 6.0 | 11.0 | 0.00 | 0.00 | 0.00 | 80 | 1004.6 |
| 20260906050539 | 49 | 335 | 6.0 | 12.0 | 0.00 | 0.00 | 0.00 | 81 | 1004.5 |
| 20260906045537 | 49 | 335 | 8.0 | 17.0 | 0.00 | 0.00 | 0.00 | 82 | 1004.5 |
| 20260906044536 | 49 | 330 | 8.0 | 16.0 | 0.00 | 0.00 | 0.00 | 83 | 1004.5 |
| 20260906043534 | 49 | 323 | 8.0 | 15.0 | 0.00 | 0.00 | 0.00 | 84 | 1004.4 |
| 20260906042533 | 49 | 322 | 8.0 | 18.0 | 0.00 | 0.00 | 0.00 | 85 | 1004.3 |
| 20260906041532 | 49 | 314 | 8.0 | 18.0 | 0.00 | 0.00 | 0.00 | 86 | 1004.1 |
| 20260906040531 | 48 | 316 | 7.0 | 15.0 | 0.00 | 0.00 | 0.00 | 88 | 1003.9 |
| 20260906035530 | 48 | 318 | 7.0 | 14.0 | 0.00 | 0.00 | 0.00 | 89 | 1003.8 |
| 20260906034529 | 48 | 318 | 6.0 | 13.0 | 0.00 | 0.00 | 0.00 | 91 | 1003.7 |
| 20260906033528 | 48 | 313 | 7.0 | 17.0 | 0.00 | 0.00 | 0.00 | 91 | 1003.5 |
| 20260906032527 | 48 | 311 | 6.0 | 15.0 | 0.00 | 0.00 | 0.00 | 92 | 1003.4 |
| 20260906031547 | 48 | 311 | 8.0 | 15.0 | 0.00 | 0.00 | 0.00 | 92 | 1003.4 |
| 20260906030545 | 48 | 308 | 7.0 | 14.0 | 0.00 | 0.00 | 0.00 | 93 | 1003.2 |
| 20260906025524 | 48 | 299 | 7.0 | 14.0 | 0.00 | 0.00 | 0.00 | 93 | 1003.1 |
| 20260906024523 | 48 | 302 | 6.0 | 14.0 | 0.00 | 0.00 | 0.00 | 93 | 1002.9 |
| 20260906023524 | 48 | 304 | 7.0 | 13.0 | 0.00 | 0.00 | 0.00 | 93 | 1002.8 |
| 20260906022522 | 48 | 307 | 6.0 | 12.0 | 0.00 | 0.00 | 0.00 | 93 | 1002.7 |
| 20260906021520 | 48 | 308 | 5.0 | 12.0 | 0.00 | 0.00 | 0.00 | 94 | 1002.7 |
| 20260906020520 | 48 | 309 | 6.0 | 12.0 | 0.00 | 0.00 | 0.00 | 93 | 1002.6 |
| 20260906015518 | 48 | 315 | 6.0 | 12.0 | 0.00 | 0.00 | 0.00 | 93 | 1002.4 |
| 20260906014518 | 47 | 317 | 5.0 | 12.0 | 0.00 | 0.00 | 0.00 | 93 | 1002.3 |
| 20260906013518 | 47 | 323 | 5.0 | 10.0 | 0.00 | 0.00 | 0.00 | 93 | 1002.2 |
| 20260906012537 | 47 | 323 | 5.0 | 10.0 | 0.00 | 0.00 | 0.00 | 93 | 1002.2 |
| 20260906011546 | 47 | 310 | 4.0 | 10.0 | 0.00 | 0.00 | 0.00 | 93 | 1002.1 |
| 20260906010545 | 47 | 322 | 5.0 | 11.0 | 0.00 | 0.00 | 0.00 | 93 | 1002.0 |
| 20260906005544 | 47 | 318 | 4.0 | 10.0 | 0.00 | 0.00 | 0.00 | 94 | 1001.9 |
| 20260906004543 | 48 | 318 | 5.0 | 11.0 | 0.00 | 0.00 | 0.00 | 93 | 1001.8 |
| 20260906003542 | 48 | 317 | 5.0 | 11.0 | 0.00 | 0.00 | 0.00 | 93 | 1001.7 |
| 20260906002541 | 48 | 313 | 5.0 | 10.0 | 0.00 | 0.00 | 0.00 | 93 | 1001.6 |
| 20260906001541 | 48 | 313 | 5.0 | 10.0 | 0.00 | 0.00 | 0.00 | 93 | 1001.5 |
| 20260906000539 | 49 | 313 | 5.0 | 9.0 | 0.00 | 0.00 | 0.00 | 93 | 1001.4 |
| 20260905235538 | 49 | 307 | 4.0 | 10.0 | 0.00 | 0.00 | 0.00 | 93 | 1001.2 |
| 20260905234538 | 49 | 311 | 5.0 | 10.0 | 0.00 | 0.00 | 0.00 | 93 | 1001.1 |
| 20260905233537 | 49 | 309 | 5.0 | 10.0 | 0.00 | 0.00 | 0.00 | 93 | 1001.1 |
| 20260905232535 | 49 | 310 | 5.0 | 9.0 | 0.00 | 0.00 | 0.00 | 92 | 1001.0 |
| 20260905231534 | 49 | 309 | 5.0 | 10.0 | 0.00 | 0.00 | 0.00 | 91 | 1000.9 |
| 20260905230533 | 50 | 314 | 5.0 | 12.0 | 0.00 | 0.00 | 0.00 | 90 | 1000.8 |
| 20260905225532 | 50 | 313 | 5.0 | 12.0 | 0.00 | 0.00 | 0.00 | 90 | 1000.7 |
| 20260905224532 | 50 | 310 | 4.0 | 10.0 | 0.00 | 0.00 | 0.00 | 90 | 1000.6 |
| 20260905223531 | 50 | 315 | 4.0 | 8.0 | 0.00 | 0.00 | 0.00 | 89 | 1000.6 |
| 20260905222529 | 50 | 321 | 5.0 | 11.0 | 0.00 | 0.00 | 0.00 | 89 | 1000.5 |
| 20260905221528 | 50 | 312 | 5.0 | 11.0 | 0.00 | 0.00 | 0.00 | 88 | 1000.4 |
| 20260905220527 | 50 | 323 | 5.0 | 9.0 | 0.00 | 0.00 | 0.00 | 88 | 1000.3 |
| 20260905215526 | 51 | 318 | 5.0 | 10.0 | 0.00 | 0.00 | 0.00 | 88 | 1000.3 |
| 20260905214525 | 51 | 319 | 5.0 | 11.0 | 0.00 | 0.00 | 0.00 | 88 | 1000.3 |
| 20260905213604 | 51 | 317 | 6.0 | 11.0 | 0.00 | 0.00 | 0.00 | 88 | 1000.2 |
| 20260905212523 | 51 | 324 | 4.0 | 9.0 | 0.00 | 0.00 | 0.00 | 89 | 1000.0 |
| 20260905211522 | 52 | 325 | 5.0 | 9.0 | 0.00 | 0.00 | 0.00 | 87 | 1000.0 |
| 20260905210521 | 52 | 325 | 5.0 | 10.0 | 0.00 | 0.00 | 0.00 | 86 | 999.9 |
| 20260905205520 | 52 | 324 | 5.0 | 10.0 | 0.00 | 0.00 | 0.00 | 85 | 999.8 |
| 20260905204539 | 52 | 320 | 4.0 | 10.0 | 0.00 | 0.00 | 0.00 | 85 | 999.6 |
| 20260905203518 | 52 | 315 | 4.0 | 9.0 | 0.00 | 0.00 | 0.00 | 85 | 999.5 |
| 20260905202517 | 53 | 316 | 5.0 | 11.0 | 0.00 | 0.00 | 0.00 | 85 | 999.5 |
| 20260905201516 | 53 | 315 | 5.0 | 11.0 | 0.00 | 0.00 | 0.00 | 84 | 999.4 |
| 20260905200545 | 53 | 320 | 5.0 | 9.0 | 0.00 | 0.00 | 0.00 | 85 | 999.2 |
| 20260905195605 | 53 | 319 | 5.0 | 10.0 | 0.00 | 0.00 | 0.00 | 85 | 999.2 |
| 20260905194544 | 54 | 326 | 4.0 | 10.0 | 0.00 | 0.00 | 0.00 | 85 | 999.1 |
| 20260905193543 | 54 | 317 | 5.0 | 10.0 | 0.00 | 0.00 | 0.00 | 84 | 999.0 |
| 20260905192602 | 54 | 322 | 5.0 | 10.0 | 0.00 | 0.00 | 0.00 | 83 | 999.0 |
| 20260905191541 | 55 | 318 | 4.0 | 9.0 | 0.00 | 0.00 | 0.00 | 83 | 998.9 |
| 20260905190540 | 55 | 317 | 5.0 | 9.0 | 0.00 | 0.00 | 0.00 | 82 | 998.8 |
| 20260905185538 | 55 | 316 | 5.0 | 10.0 | 0.00 | 0.00 | 0.00 | 81 | 998.7 |
| 20260905184538 | 56 | 317 | 5.0 | 10.0 | 0.00 | 0.00 | 0.00 | 80 | 998.7 |
| 20260905183537 | 56 | 307 | 6.0 | 12.0 | 0.00 | 0.00 | 0.00 | 78 | 998.6 |
| 20260905182535 | 57 | 306 | 4.0 | 10.0 | 0.00 | 0.00 | 0.00 | 78 | 998.5 |
| 20260905181555 | 57 | 299 | 3.0 | 9.0 | 0.00 | 0.00 | 0.00 | 76 | 998.4 |
| 20260905180553 | 57 | 292 | 4.0 | 8.0 | 0.00 | 0.00 | 0.00 | 74 | 998.4 |
| 20260905175532 | 58 | 301 | 4.0 | 8.0 | 0.00 | 0.00 | 0.00 | 73 | 998.3 |
| 20260905174532 | 58 | 299 | 4.0 | 9.0 | 0.00 | 0.00 | 0.00 | 72 | 998.2 |